Tracking 19193 objects as of 24-Jun-2018
HD Live streaming from Space Station
objects crossing your sky now

FENGYUN 1C DEB

Track FENGYUN 1C DEB now!
10-day predictions


NORAD ID: 30740
Int'l Code: 1999-025ATA
Perigee: 783.9 km
Apogee: 854.1 km
Inclination: 98.8 °
Period: 101.1 minutes
Semi major axis: 7189 km
RCS: 0.0332 m2 (small)
Launch date: May 10, 1999
Source: People's Republic of China (PRC)
Launch site: Taiyaun Space Center, China (TSC)

Note: This is SATELLITE DEBRIS
aabbcc
Your satellite tracking list
Your tracking list is empty




NASA's NSSDC Master Catalog

Two Line Element Set (TLE):
1 30740U 99025ATA 18174.58881639  .00000794  00000-0  36074-3 0  9991
2 30740  98.8086 230.8916 0048854 200.8295 159.0893 14.24001996586863
Source of the keplerian elements: AFSPC